GAOFEN-12 02

Last updated on Sun Dec 21 2025 00:02:37 GMT+0000 (Coordinated Universal Time)

1 48079U 21026A 25354.58004687 .00000325 00000+0 49119-4 0 9993 2 48079 97.9854 348.5487 0003601 85.3951 274.7672 14.80683563255339
UTC large
Height (km)
Speed (km/s)
/
Latitude / Longitude
Inclination (degrees)
Orbital Period (minutes)
Azimuth
Elevation
Range (km)
Doppler Factor

Next 0 passes for location: London (51.5072 / 0.1276)

Sorry there are no passes over London.